Regional Weather Roundup
Issued by NWS

Home | Current Version | Previous Version | Text Only | Print | Product List | Glossary Off
Versions: 1 2 3 4 5 6 7 8 9 10 11 12 13 14 15 16 17 18 19 20 21 22 23 24 25 26 27 28 29 30 31 32 33 34 35 36 37 38 39 40 41 42 43 44 45 46 47 48 49 50

000
ASUS43 KMPX 280810
RWRMN
WEATHER ROUNDUP FOR MINNESOTA
NATIONAL WEATHER SERVICE TWIN CITIES/CHANHASSEN MN
300 AM CDT SAT MAR 28 2015


NOTE: "FAIR" INDICATES FEW OR NO CLOUDS BELOW 12,000 FEET WITH NO
SIGNIFICANT WEATHER AND/OR OBSTRUCTIONS TO VISIBILITY. N/A MEANS
CURRENT SKY AND/OR WEATHER CONDITIONS ARE NOT AVAILABLE.

MNZ060>063-068>070-280900-
   Twin Cities Metro

CITY           SKY/WX    TMP DP  RH WIND       PRES   REMARKS
TWIN CITIES    CLEAR     24   7  48 SE3       30.19S
ST PAUL        PTCLDY    24  12  60 S3        30.21R
CRYSTAL        CLEAR     22  11  62 CALM      30.18R
BLAINE         CLEAR     21  12  68 CALM      30.18S
LAKEVILLE      PTCLDY    18   9  68 CALM      30.18S
EDEN PRAIRIE   CLOUDY    24   9  52 SE5       30.17S WCI  18
SOUTH ST PAUL  CLEAR     24  13  64 CALM      30.19S
LAKE ELMO      FAIR      23  12  63 CALM      30.20R
$$
MNZ001>005-007-008-013>017-022>024-027-028-280900-
   Northwest Minnesota

CITY           SKY/WX    TMP DP  RH WIND       PRES   REMARKS
BEMIDJI        CLEAR     16   9  76 CALM      30.12S
HALLOCK        CLEAR     25  21  86 SE9       30.10F WCI  15
ROSEAU         CLEAR     21  18  86 CALM      30.12S
WARROAD        CLEAR     18  14  86 CALM      30.12S
THIEF RVR FALL CLEAR     25  18  74 SE5       30.12S WCI  19
CROOKSTON      CLEAR     19  16  86 SE7       30.13S WCI  10
FOSSTON        CLEAR     18  10  73 SE3       30.12F
DETROIT LAKES  CLEAR     25  18  74 SE5       30.12S WCI  19
MOORHEAD       CLEAR     25  19  80 SE3       30.12S
PARK RAPIDS    CLEAR     22  12  65 SE6       30.12S WCI  14
MAHNOMEN       FAIR      22  12  66 SE7       30.11S WCI  13
$$
MNZ006-009>011-018-025>026-280900-
   North Central Minnesota

CITY           SKY/WX    TMP DP  RH WIND       PRES   REMARKS
BAUDETTE       CLEAR     18  14  84 CALM      30.11S
FLAG ISLAND    CLEAR     16   9  73 CALM      30.12S
INTL FALLS     CLEAR     12   8  84 CALM      30.13S
WASKISH        CLEAR     14  12  92 CALM      30.13R
BIG FORK       CLEAR     12   9  85 CALM      30.13S
LONGVILLE      CLEAR     16  12  86 CALM      30.13F
GRAND RAPIDS   CLEAR     18   3  53 SE5       30.13S WCI  11
CRANE LAKE     CLEAR     12   9  85 SE2       30.17S
ORR            CLEAR     18   3  53 CALM      30.12S
COOK           CLEAR     14   7  73 CALM      30.15S
WALKER         FAIR      19   9  65 CALM      30.13R
$$
MNZ012-019>021-037-280900-
   Northeast Minnesota

CITY           SKY/WX    TMP DP  RH WIND       PRES   REMARKS
DULUTH         CLEAR     18  12  77 E5        30.15S WCI  11
ELY            CLEAR     10   7  85 CALM      30.15S
HIBBING        CLEAR     10   4  76 CALM      30.15S
EVELETH        CLEAR     10   7  85 CALM      30.16S
DULUTH HARBOR  CLEAR     23  18  80 CALM      30.21S
TWO HARBORS    CLEAR     16  10  79 CALM      30.17R
SILVER BAY     CLEAR      9   7  92 CALM      30.17S
GRAND MARAIS     N/A     11   6  81 NW5       30.22R WCI   3
G MARAIS ARPRT PTCLDY     0  -8  71 W3        30.13S
$$
MNZ029>031-032-039>041-046>048-054>057-064-280900-
   West Central Minnesota

CITY           SKY/WX    TMP DP  RH WIND       PRES   REMARKS
FERGUS FALLS   CLEAR     25  16  68 SE8       30.15S WCI  16
WHEATON        MOCLDY    27  23  86 SE8       30.13S WCI  18
MORRIS         CLOUDY    28  23  80 SE9       30.12R WCI  20
ALEXANDRIA     CLEAR     23  15  71 SE6       30.13S WCI  16
ELBOW LAKE     FAIR      25  18  76 SE7       30.12R WCI  17
WADENA         CLOUDY    21  16  79 CALM      30.13R
GLENWOOD       PTCLDY    23  18  80 SE5       30.14R WCI  17
APPLETON       CLOUDY    30  25  80 SE5       30.13S WCI  25
BENSON         CLOUDY    28  21  74 S5        30.13F WCI  23
ORTONVILLE     CLOUDY    28  25  86 S8        30.11S WCI  20
MADISON        CLOUDY    30  25  80 SE6       30.13R WCI  24
WILLMAR        CLOUDY    28  18  64 SE7       30.16S WCI  21
$$
MNZ033>034-036-042>043-049>051-058-059-280900-
   Central Minnesota

CITY           SKY/WX    TMP DP  RH WIND       PRES   REMARKS
ST CLOUD       CLOUDY    20  14  77 E3        30.17R
SAUK CENTRE    CLOUDY    25  16  70 SE5       30.15S WCI  19
PAYNESVILLE    CLOUDY    23  14  69 CALM      30.16S
AITKIN         CLEAR     18  12  79 CALM      30.15R
PINE RIVER     CLEAR     18  12  79 CALM      30.17S
BRAINERD       CLEAR     16  11  80 CALM      30.16R
STAPLES        MOCLDY    21  12  68 SE3       30.14S
LONG PRAIRIE   CLOUDY    25  18  74 S3        30.15R
LITTLE FALLS   CLEAR     23  14  68 CALM      30.16S
LITCHFIELD     CLOUDY    27  14  59 CALM      30.16S
BUFFALO        MOCLDY    25  12  58 CALM      30.19R
MAPLE LAKE     CLOUDY    24  17  75 CALM      30.18R
$$
MNZ037-044-045-052-053-280900-
   East Central Minnesota

CITY           SKY/WX    TMP DP  RH WIND       PRES   REMARKS
PRINCETON      MOCLDY    18  12  79 CALM      30.18R
MORA           CLEAR     18  14  86 CALM      30.19S
CAMBRIDGE      CLEAR     19  10  68 CALM      30.17S
RUSH CITY      CLEAR     19  14  79 CALM      30.19R
MOOSE LAKE     CLEAR     19  10  68 CALM      30.16S
HINCKLEY       FAIR      19  14  79 CALM      30.18R
CLOQUET        CLEAR     16  12  86 CALM      30.16S
MCGREGOR       CLEAR     18  10  73 CALM      30.16S
$$
MNZ071>073-080-081-089-090-097-098-280900-
   Southwest Minnesota

CITY           SKY/WX    TMP DP  RH WIND       PRES   REMARKS
MONTEVIDEO     CLOUDY    28  25  86 S5        30.14F WCI  23
GRANITE FALLS  CLOUDY    29  26  87 E5        30.15F WCI  24
CANBY          CLOUDY    29  26  88 SE6       30.13R WCI  23
MARSHALL       CLOUDY    28  23  80 SE9       30.13S WCI  20
REDWOOD FALLS  CLOUDY    30  26  85 S3        30.15S
OLIVIA         CLEAR     28  25  86 SE5       30.14S WCI  23
PIPESTONE      CLOUDY    28  27  93 SE9       30.08S WCI  20
WINDOM         CLOUDY    28  27  93 CALM      30.13F
WORTHINGTON    CLOUDY    27  23  86 SE8       30.12S WCI  18
JACKSON        CLOUDY    30  27  86 CALM      30.13F
TRACY          CLOUDY    28  27  93 SE5       30.12F WCI  23
SLAYTON        CLOUDY    27  25  94 CALM      30.11S
$$
MNZ065>067-074>077-082>085-091>093-280900-
   South Central Minnesota

CITY           SKY/WX    TMP DP  RH WIND       PRES   REMARKS
MANKATO        MOCLDY    25  14  63 SE6       30.17R WCI  18
NEW ULM        CLOUDY    27  21  80 SE3       30.16S
ST JAMES       CLOUDY    30  25  80 S6        30.17S WCI  24
FAIRMONT       CLOUDY    28  19  69 S5        30.14F WCI  23
GLENCOE        CLOUDY    24  16  73 CALM      30.16F
FARIBAULT      CLOUDY    25  10  54 S3        30.17F
OWATONNA       MOCLDY    21  12  68 SE6       30.16S WCI  14
WASECA         MOCLDY    23  16  74 E5        30.18S WCI  17
ALBERT LEA     CLOUDY    27  16  63 S7        30.16S WCI  19
$$
MNZ078>079-086>088-094>096-280900-
   Southeast Minnesota

CITY           SKY/WX    TMP DP  RH WIND       PRES   REMARKS
ROCHESTER      PTCLDY    18  10  71 S6        30.17S WCI  10
RED WING       PTCLDY    21  14  73 CALM      30.19S
STANTON        PTCLDY    20  15  79 CALM      30.17S
DODGE CENTER   PTCLDY    19  12  73 CALM      30.16S
WINONA         PTCLDY    23  18  80 CALM      30.22S
AUSTIN         PTCLDY    19  16  86 CALM      30.17S
PRESTON        MOCLDY    17  10  75 SE3       30.18S
$$
ABBREVIATIONS USED IN REMARKS
   TC - TEMPERATURES IN CELSIUS
  WCI - WIND CHILL INDEX
   HX - HEAT INDEX
  VSB - VISIBILITY
$$


USA.gov is the U.S. government's official web portal to all federal, state and local government web resources and services.